Cloud_Cover
100 98 100 100 100 25 0 0 0 0 0 0 2 0 0 0 72 25 66 14 32 100 99 100 100 100 100 100 24 9 100 99 70 77 81 73 95 100 100 61 10 51 10 5
100 81 100 100 100 40 0 5 0 0 0 0 1 4 0 0 63 36 57 25 100 100 100 100 100 100 86 79 77 88 90 100 77 95 100 100 90 99 100 100 78 10 6 12
100 99 100 100 56 5 0 0 0 0 0 0 0 0 0 0 100 74 6 69 100 98 100 100 100 100 100 100 100 53 95 100 100 100 100 100 99 100 100 100 100 100 92 17
100 100 100 100 54 2 0 0 0 1 2 0 0 0 34 83 96 78 93 100 99 100 98 100 100 100 100 100 100 100 100 100 99 100 100 100 100 100 100 100 100 100 100 91
100 97 37 9 92 30 0 0 38 100 86 0 28 100 100 76 97 100 100 100 100 97 100 100 80 100 31 100 100 100 100 100 100 100 100 100 100 100 100 100 100 100 100 100
100 81 5 86 78 100 2 0 67 74 29 100 100 100 95 37 99 100 100 100 100 100 100 100 76 95 100 100 100 100 100 100 100 100 99 100 90 100 100 100 100 100 100 100
8 0 4 38 100 98 6 31 100 78 100 100 100 100 100 100 100 100 100 100 100 100 100 100 96 100 100 100 100 100 100 100 100 100 99 100 100 100 100 100 100 100 100 100
5 0 4 20 72 6 7 5 100 100 100 100 100 100 100 100 100 100 100 100 100 100 100 100 99 100 100 100 100 100 100 100 100 100 100 100 98 100 94 100 100 100 100 100
2 5 0 14 90 68 5 7 100 100 100 100 100 100 100 100 100 100 100 100 100 100 100 100 100 100 100 100 100 100 100 100 100 100 100 100 100 100 100 100 100 100 100 100
0 4 4 28 73 20 8 6 100 100 99 100 100 100 100 100 100 100 100 100 100 100 100 100 100 100 100 100 100 100 100 100 99 100 100 100 100 100 100 100 100 100 100 100
63 8 5 5 53 39 58 100 100 100 100 100 100 100 100 100 100 100 100 100 100 100 100 100 100 100 100 100 100 100 100 100 100 100 100 100 100 100 100 100 100 100 100 100
3 16 100 87 88 100 100 100 100 100 100 100 100 100 100 100 100 100 100 100 100 100 100 100 100 100 75 90 67 98 100 95 100 100 100 100 83 86 100 100 100 100 97 95
2 6 80 100 100 100 100 100 100 100 100 100 100 100 100 100 100 100 100 100 100 100 100 100 100 100 97 79 42 6 8 25 44 42 53 40 23 20 36 48 20 17 25 38
5 5 93 79 99 92 100 100 100 100 100 100 100 100 100 94 100 100 100 98 100 100 100 100 100 100 75 54 16 7 5 5 15 21 22 16 7 2 7 5 3 0 0 1
5 5 5 49 93 88 64 99 100 100 100 100 100 100 100 100 100 99 86 91 99 100 100 100 100 100 100 100 4 4 7 25 6 5 5 5 5 5 3 1 2 5 5 5
92 69 5 5 5 13 5 65 100 100 100 100 100 100 100 100 100 100 100 100 100 100 100 100 100 100 100 43 5 5 5 25 24 6 8 92 97 57 10 13 5 5 5 5
5 25 20 5 5 4 5 5 22 100 100 100 100 100 100 100 100 100 86 100 100 100 100 100 100 100 100 5 10 15 100 5 58 81 81 100 100 99 10 5 64 84 72 29
56 89 18 4 0 0 0 0 0 4 35 65 76 96 100 100 100 100 100 100 100 100 100 100 100 100 96 5 62 13 9 87 38 98 100 100 100 100 94 88 96 73 20 81
0 1 1 1 2 4 0 0 0 0 0 2 5 18 5 16 6 10 7 54 100 100 100 95 100 83 5 61 42 21 68 79 98 100 100 93 58 80 100 100 100 96 10 30
3 2 5 5 5 5 4 0 0 0 0 0 0 1 11 8 6 12 3 4 82 88 100 100 89 6 31 71 96 98 94 100 100 100 91 12 23 76 98 100 98 88 66 67
5 5 5 5 5 0 0 0 0 0 0 0 0 0 3 2 9 1 4 5 89 82 96 89 100 74 11 23 85 98 100 82 89 65 34 5 6 28 47 98 100 82 81 97
2 0 0 0 0 0 0 0 0 0 0 0 0 0 2 30 27 14 0 7 6 7 86 100 82 90 100 100 99 98 55 100 100 84 48 85 43 86 97 48 35 100 100 100
11 1 7 1 0 0 0 0 0 0 1 20 19 0 8 12 10 21 37 20 83 56 100 100 100 100 100 100 96 96 91 81 95 92 57 61 66 100 100 100 100 100 100 100
20 42 66 100 100 75 16 28 5 1 84 94 100 83 58 100 94 24 5 25 100 100 100 100 100 100 94 92 99 99 100 86 47 42 96 100 100 100 100 100 100 92 35 6
100 100 39 54 43 30 68 98 100 100 100 100 100 100 100 96 26 35 7 98 100 100 100 100 100 100 100 99 100 100 100 76 92 99 100 100 100 84 5 5 5 3 4 5
98 71 100 100 99 100 100 100 100 100 99 94 100 100 100 100 98 42 95 100 100 100 100 100 100 100 95 100 100 100 97 100 100 100 99 58 20 7 5 5 5 5 4 2
100 100 100 100 100 100 100 98 100 100 99 100 100 100 100 100 79 92 100 100 100 100 100 100 100 100 100 100 100 100 100 100 78 100 100 54 59 7 7 5 3 0 0 0